GFSSGP_925_temp_021.txt.gz
Temp
24 24 24 22 21 18 21 24 23 25 25 24 24 25 24 24 24 22 23 23 23 22 21 20 20 20 20 19 20 20 20 20 20 20 20 20 19 19 19 19 18 18 18 17 17 17 18 18 19
24 24 23 16 19 19 20 21 25 25 25 24 24 24 24 25 23 22 23 23 23 23 22 21 20 20 19 19 19 20 20 19 19 19 20 19 19 19 19 19 18 18 18 18 17 18 18 18 18
24 24 19 17 16 20 21 23 24 24 23 24 25 24 24 25 23 22 24 23 23 22 22 21 21 20 19 19 19 19 19 19 19 19 19 19 18 18 19 19 18 18 18 17 16 17 18 18 18
24 21 16 19 23 23 24 24 23 24 24 23 23 25 23 23 23 23 24 23 23 22 22 22 21 20 20 19 19 19 19 19 18 19 18 18 18 18 18 18 18 18 18 16 16 17 17 18 18
22 16 18 20 22 22 23 23 23 24 23 24 23 24 22 23 23 24 24 23 23 22 22 22 21 20 20 20 20 20 19 19 19 19 19 18 18 18 18 18 17 18 17 15 15 16 17 18 18
18 16 18 20 22 23 23 23 24 23 23 23 24 23 22 23 23 23 23 23 22 22 22 21 21 20 20 20 20 19 19 19 19 19 18 19 18 18 18 18 17 17 17 16 14 15 17 17 18
18 16 19 21 21 23 24 22 24 23 23 24 24 24 23 23 25 24 23 22 22 21 21 21 20 20 19 19 19 19 19 18 18 18 18 18 18 17 18 18 18 16 16 15 14 14 16 17 18
15 16 21 21 20 24 22 22 23 23 24 22 23 22 23 24 24 23 23 22 22 21 22 21 21 20 19 19 18 18 18 18 18 18 18 18 18 17 17 17 17 17 15 15 14 14 16 17 17
17 17 18 22 23 23 22 22 23 21 22 21 22 23 23 23 23 22 22 21 21 20 20 20 20 20 20 19 19 18 18 18 18 18 18 18 17 17 17 17 17 16 16 14 13 14 16 17 17
17 16 20 21 22 22 22 22 22 22 20 21 21 21 22 22 20 19 18 18 19 20 20 19 19 19 19 19 18 18 18 18 18 18 18 18 18 17 17 17 16 16 16 15 13 13 14 17 16
18 19 19 21 21 21 22 21 20 21 21 20 21 18 17 15 14 13 13 13 13 16 17 19 19 19 18 18 18 18 18 18 18 18 18 17 18 18 17 17 16 16 15 15 14 14 14 15 15
21 20 21 22 20 21 22 21 20 19 20 17 16 15 13 11 10 11 11 12 14 15 17 18 18 19 19 19 18 18 17 17 18 18 17 17 17 17 16 16 16 16 15 14 14 14 14 14 15
20 20 20 19 18 19 19 19 20 19 18 17 13 12 10 9 10 10 11 11 12 14 16 18 19 19 19 18 18 18 18 17 17 17 17 17 17 17 16 16 16 15 15 15 14 14 14 14 14
20 20 19 18 19 19 20 20 20 21 17 15 12 9 8 8 8 8 8 9 10 12 14 16 18 19 19 18 18 17 17 18 17 17 17 17 16 16 17 16 15 15 15 15 14 14 13 13 13
20 19 17 18 19 19 17 20 19 19 16 14 10 8 8 7 7 7 7 8 8 10 12 15 16 17 19 17 17 17 16 17 17 17 17 17 17 16 16 16 15 15 15 14 14 14 13 13 13
19 18 18 20 19 20 20 19 20 19 16 13 9 7 7 7 6 7 7 8 9 10 11 12 13 15 16 16 16 16 16 15 15 15 16 16 16 16 16 15 15 15 15 14 13 13 13 12 12
15 17 16 18 19 20 20 19 19 17 15 11 8 8 8 6 6 6 6 7 8 9 11 12 12 13 14 14 14 14 15 14 14 14 14 15 15 14 14 14 14 14 14 14 13 13 12 12 12
16 16 16 17 20 19 19 17 17 18 18 11 8 7 6 6 6 5 5 6 7 8 9 10 12 13 13 13 13 13 13 13 13 13 13 14 13 13 13 13 13 12 12 11 11 11 11 11 11
18 16 17 17 18 19 17 16 16 16 13 9 7 7 6 6 6 6 5 6 6 7 8 8 10 10 12 13 13 12 11 11 11 12 12 12 12 12 12 11 11 11 11 11 11 11 10 10 10
16 17 15 16 16 16 16 16 16 15 13 11 8 7 6 5 5 5 5 5 5 6 6 8 8 9 10 10 9 9 9 8 8 9 9 10 10 10 10 10 10 10 10 10 10 9 9 9 9
15 14 15 16 17 16 16 14 16 11 9 8 7 6 6 5 4 4 4 4 5 5 5 6 7 8 8 9 9 9 9 8 8 7 7 7 8 8 8 8 9 8 8 8 8 8 8 8 8
15 15 15 16 16 15 15 14 15 13 9 8 6 5 5 4 4 4 3 3 4 5 6 6 7 8 8 8 8 7 4 3 3 4 5 5 6 6 7 7 7 7 7 7 7 7 7 6 6
16 16 15 16 14 14 15 13 13 12 11 8 6 5 4 4 3 3 3 3 4 5 5 6 7 7 7 7 7 6 5 4 5 5 5 5 5 5 4 5 5 5 5 5 6 6 6 6 5
15 16 13 11 12 12 13 14 14 13 14 8 6 5 4 3 3 3 4 4 4 4 5 6 6 5 6 6 6 5 4 4 4 4 4 3 4 4 4 4 4 4 4 3 3 4 5 4 4
15 14 13 12 11 13 12 12 14 13 10 9 7 5 4 4 3 2 3 3 4 4 4 4 4 3 4 4 4 4 4 4 3 3 2 3 3 3 3 3 3 3 3 3 3 3 3 3 3
13 14 13 13 11 12 12 12 14 8 6 7 7 5 4 3 3 2 3 3 3 3 4 4 4 3 4 4 3 3 3 3 3 2 2 2 2 2 2 2 2 3 3 3 3 3 3 3 3
14 13 14 12 4 8 13 13 10 7 6 5 5 4 4 3 3 3 4 4 4 4 4 4 4 4 4 4 3 3 3 3 2 2 2 2 1 1 1 2 2 2 2 2 2 2 2 2 2
14 13 12 10 11 9 12 12 13 8 7 6 5 5 4 4 3 3 4 4 4 4 4 4 4 3 3 3 3 2 2 2 1 1 1 1 1 1 1 1 1 1 1 1 1 1 1 1 1
13 13 13 12 10 11 9 13 11 10 8 7 6 5 4 4 3 2 3 4 4 4 4 4 3 3 2 2 2 2 1 1 1 1 1 1 1 1 1 1 1 1 1 0 -1 -1 -1 -1 -1
13 12 12 13 12 8 10 13 9 11 8 7 6 6 4 4 3 3 3 3 3 3 3 3 3 2 2 2 2 2 1 1 1 0 -0 -0 0 0 -0 -0 -1 -1 -1 -2 -3 -3 -3 -4 -4

GFSSGP_925_temp_024.txt.gz
Temp
24 24 24 22 21 17 20 23 22 24 24 23 23 24 24 23 23 22 23 22 22 22 21 20 20 19 19 19 20 20 20 20 20 20 20 19 19 19 19 19 18 18 18 17 16 17 18 18 19
24 24 23 15 18 18 19 20 24 24 23 23 23 23 23 24 22 22 23 23 22 22 22 21 20 20 20 20 20 20 20 20 20 20 19 19 19 19 19 18 18 18 18 18 16 17 18 18 18
23 23 19 16 15 19 20 22 23 23 23 23 24 23 23 24 23 22 23 22 22 22 22 21 21 20 20 19 19 19 19 19 19 19 19 19 19 19 19 18 18 18 18 18 16 17 18 18 18
23 20 15 18 23 22 23 23 22 23 23 22 22 24 22 23 22 23 23 22 22 22 21 21 20 20 20 19 19 19 19 19 19 19 19 19 18 18 18 18 18 18 18 17 16 16 17 17 18
21 15 17 19 21 21 21 22 22 23 23 23 22 24 22 22 22 23 23 23 22 22 21 21 20 20 20 19 18 19 19 19 18 18 18 18 18 18 18 18 18 18 18 16 15 15 16 17 18
17 15 18 20 21 21 22 22 23 22 22 23 23 22 22 23 23 23 23 23 22 22 22 21 20 20 19 18 19 18 18 18 18 18 18 18 18 18 18 18 17 17 17 16 14 14 15 17 17
17 16 18 20 21 22 22 19 23 23 22 24 22 23 22 22 23 23 22 22 21 21 20 20 20 20 19 19 18 18 18 18 18 18 18 18 18 17 18 17 17 17 16 16 14 13 14 16 17
14 15 19 20 20 23 22 22 22 22 23 21 22 22 23 21 22 21 21 21 20 20 20 19 19 19 18 18 18 18 18 18 18 18 18 18 18 17 17 17 17 17 16 15 14 13 14 16 16
16 16 18 21 20 23 21 22 22 20 21 20 21 21 19 20 20 21 21 21 20 20 19 19 19 19 18 18 18 18 18 18 18 18 18 18 18 17 17 16 17 16 16 15 15 14 14 16 16
16 16 19 20 21 22 21 21 20 21 19 21 20 19 17 17 16 15 13 13 15 17 18 18 19 18 18 18 18 17 17 18 18 18 18 18 18 18 17 16 16 16 15 15 14 13 14 15 15
17 19 19 21 20 21 21 20 20 21 21 20 19 16 12 12 11 11 11 11 11 13 15 17 18 18 18 18 17 18 18 17 17 18 17 17 17 17 17 17 16 16 16 15 15 14 14 14 15
20 19 19 21 20 20 21 20 20 19 20 16 11 11 10 9 9 8 9 11 12 14 14 16 16 18 18 18 17 17 16 16 16 17 18 17 17 17 17 16 16 15 15 15 15 15 14 14 14
20 20 19 19 18 18 18 19 19 19 18 12 11 9 8 8 8 8 9 10 11 12 14 15 16 17 17 17 16 16 17 16 15 16 17 17 17 17 17 17 16 15 15 15 16 15 14 14 14
19 19 17 17 19 18 19 19 19 17 13 11 10 8 7 7 6 7 7 8 9 10 12 13 15 17 18 17 16 16 16 16 16 16 16 16 16 16 17 17 16 15 15 15 14 15 14 13 13
19 19 17 18 19 19 16 20 18 17 15 11 9 7 6 6 6 6 6 7 7 9 11 12 13 14 16 15 14 15 15 16 16 15 15 15 15 16 16 16 16 15 15 15 14 13 14 14 13
18 16 17 19 18 19 19 19 20 15 15 11 8 6 6 6 5 5 5 6 7 9 10 11 12 13 13 13 14 14 14 14 14 14 14 14 14 14 14 14 14 14 14 14 14 13 13 13 13
14 17 16 17 18 19 19 19 19 15 14 10 7 6 6 5 5 5 5 6 7 8 10 11 11 12 12 13 13 13 13 13 13 13 13 13 13 13 13 13 13 12 12 12 12 11 10 11 11
16 15 16 16 19 18 18 17 17 16 16 10 6 6 5 5 4 5 5 6 7 8 9 10 11 11 11 12 12 12 12 11 11 11 11 12 12 12 12 11 11 11 11 11 10 10 10 10 10
16 16 17 17 17 18 17 16 16 16 10 7 6 6 5 5 5 5 5 6 7 8 9 10 11 11 12 12 11 11 8 9 10 10 10 10 10 10 10 10 10 10 10 9 9 10 9 9 9
16 16 15 15 15 16 15 15 15 15 12 9 6 5 5 5 4 4 4 5 5 5 6 7 9 10 11 11 9 8 8 7 8 8 9 9 9 9 9 9 8 9 8 8 7 8 8 8 8
14 14 15 16 16 15 15 14 14 10 8 7 6 5 5 4 3 3 3 4 5 6 6 7 8 9 9 9 9 9 9 8 7 6 6 6 7 7 7 7 7 7 7 7 6 6 6 7 7
14 13 15 15 15 14 15 13 14 12 8 7 5 4 4 3 3 3 3 3 4 5 6 7 8 9 9 10 10 10 6 3 3 4 5 5 6 6 6 6 6 5 5 6 5 5 5 5 5
15 14 13 14 13 14 14 12 13 11 11 7 5 4 4 3 3 2 3 3 3 5 5 5 6 7 7 8 8 7 5 4 4 5 5 5 5 5 5 5 5 5 4 4 4 4 4 3 3
13 14 12 10 11 11 13 14 13 12 13 8 5 4 3 3 2 2 3 3 3 4 5 5 5 5 6 6 6 6 5 4 4 4 4 3 3 4 3 4 4 4 3 3 3 4 4 4 3
14 14 13 12 11 13 12 12 14 13 10 10 7 4 3 3 2 1 2 3 3 4 4 4 4 4 5 5 5 4 4 4 3 3 3 3 3 2 2 2 3 3 2 3 2 2 2 2 2
13 14 12 13 11 12 11 12 14 8 6 5 6 4 3 2 2 2 3 3 3 3 3 3 3 3 3 4 3 3 3 3 2 2 2 2 2 1 2 2 2 2 2 2 2 2 2 2 2
13 13 13 12 2 8 12 13 10 8 6 4 4 4 3 2 2 2 3 3 3 3 3 3 3 3 3 3 3 3 3 3 2 2 2 2 2 2 2 2 1 1 1 1 1 1 1 1 1
14 12 13 10 11 10 12 12 13 10 8 5 4 4 3 3 2 2 3 3 4 4 3 3 3 3 3 3 3 3 3 2 2 2 2 2 1 1 1 1 0 0 0 0 0 0 0 -0 -0
12 12 12 12 10 12 9 13 10 11 7 5 5 5 3 3 3 2 3 4 4 3 3 3 3 3 3 3 3 2 2 2 1 1 0 0 -0 -0 -0 -1 -1 -1 -1 -2 -2 -2 -2 -2 -1
12 12 12 13 11 8 10 14 8 9 7 6 6 5 4 3 3 2 3 3 3 3 3 3 3 3 3 2 2 1 1 0 0 0 -0 -0 -1 -1 -1 -1 -2 -2 -3 -3 -4 -4 -5 -5 -5

GFSSGP_925_temp_030.txt.gz
Temp
24 24 24 26 29 29 27 26 26 27 27 27 26 27 28 27 27 26 23 22 21 20 20 19 19 19 19 19 19 19 19 19 19 19 19 19 19 19 19 18 18 18 17 17 16 16 18 18 18
23 23 25 27 29 28 27 27 27 27 27 26 26 27 28 27 26 26 25 22 20 20 20 19 19 19 19 19 19 19 19 19 19 19 19 19 19 19 18 18 18 18 17 18 16 17 17 18 18
23 24 29 28 27 28 27 27 27 26 26 26 27 26 27 27 26 25 21 21 20 20 19 19 19 19 19 19 19 19 19 19 19 19 19 19 19 19 19 18 18 18 17 17 16 16 17 17 18
23 27 27 29 27 26 27 27 27 27 26 26 26 27 26 23 24 21 20 20 20 19 19 19 19 19 19 19 19 19 18 18 18 18 19 19 19 19 19 18 18 18 17 17 16 14 16 17 18
23 27 28 27 26 26 26 26 26 27 27 27 26 27 26 23 21 20 20 20 20 19 18 18 19 19 19 19 18 18 18 19 18 18 18 18 18 18 18 18 18 18 18 17 16 15 16 17 17
27 26 28 27 26 25 26 26 26 27 26 26 27 27 25 21 20 19 19 19 18 18 18 18 19 19 18 18 19 19 18 19 18 18 18 18 18 18 18 17 17 17 17 16 16 16 16 16 17
26 27 26 27 26 26 26 25 26 27 27 26 26 27 25 23 18 18 18 17 17 17 17 17 17 18 18 18 18 19 19 19 18 18 18 18 17 18 17 17 17 17 16 16 16 16 15 16 17
25 26 25 25 26 26 25 25 25 26 26 24 25 26 26 21 16 17 17 17 17 18 18 18 17 17 17 17 18 18 18 18 18 18 18 18 17 17 17 17 17 17 17 16 16 15 15 16 16
22 27 26 25 25 26 24 25 24 23 25 24 23 22 17 15 16 18 18 18 16 16 17 18 18 18 17 17 17 17 18 18 18 18 18 18 17 17 17 17 17 17 16 17 16 15 15 15 16
25 26 26 25 25 26 25 25 25 25 25 24 23 18 16 16 16 17 17 16 15 14 14 14 15 16 16 17 17 17 17 17 17 18 18 18 18 17 17 17 17 16 16 16 17 16 15 15 15
22 26 23 23 24 24 24 24 24 25 25 24 24 20 16 16 15 15 15 13 13 13 13 15 16 17 17 15 16 16 17 17 17 17 18 17 18 17 17 17 17 16 16 15 16 15 16 15 14
24 22 23 22 22 22 23 23 24 24 23 19 18 16 15 16 14 13 13 12 12 12 12 13 16 16 16 16 15 16 16 17 17 17 17 17 17 17 17 17 16 16 16 15 15 15 15 15 15
23 22 21 22 21 21 21 23 24 23 18 16 15 15 15 14 13 11 11 11 11 11 11 11 13 15 16 16 15 16 16 16 16 16 16 16 16 16 16 16 16 15 15 14 14 14 14 13 12
22 21 22 22 22 21 21 22 21 20 17 16 16 15 14 12 11 12 11 11 10 9 10 9 10 13 14 14 15 15 15 15 15 16 15 15 15 15 15 15 14 14 14 14 13 13 13 13 13
20 23 23 23 21 22 21 21 22 20 17 17 15 14 12 11 11 10 9 9 8 9 8 9 10 11 12 13 14 15 15 15 14 14 14 14 14 14 14 14 13 13 13 13 13 13 12 12 12
22 21 23 22 21 20 21 25 22 18 18 18 16 15 13 11 10 9 8 8 8 8 9 10 11 11 12 13 13 13 13 13 13 13 13 13 13 13 13 13 13 12 12 12 12 12 11 11 11
21 24 22 23 21 21 21 24 21 19 19 19 17 15 13 12 10 8 7 7 7 7 9 10 10 10 12 12 12 11 11 12 12 11 11 12 12 12 12 12 11 11 11 11 10 10 10 10 10
23 22 21 22 21 20 22 23 21 19 19 20 18 15 13 12 9 7 7 6 6 7 9 10 11 10 11 12 12 11 10 9 9 9 10 11 11 11 11 10 10 10 9 9 9 9 9 8 8
22 22 23 22 20 20 22 22 24 21 19 18 17 14 13 11 8 7 6 6 7 7 8 9 9 9 9 9 9 8 7 7 7 8 8 9 9 10 9 9 8 7 7 7 8 8 8 8 8
19 21 22 21 18 19 21 21 22 21 20 19 18 14 12 10 10 8 7 7 6 6 6 7 8 9 8 8 7 6 5 5 5 6 7 8 9 9 8 7 6 6 6 6 6 6 7 7 6
19 20 21 21 18 18 18 21 21 19 14 13 14 14 12 11 10 9 7 6 6 5 6 7 8 9 8 8 7 6 5 5 5 4 5 6 7 7 7 7 6 6 4 4 4 4 5 6 6
20 19 19 18 19 20 18 22 21 20 16 12 11 12 11 10 9 8 7 7 6 5 5 6 7 8 8 7 7 7 7 5 3 3 2 4 5 6 6 5 5 5 4 4 3 3 3 4 4
20 16 18 17 18 17 18 19 21 16 18 15 12 11 11 10 10 8 7 5 4 4 4 5 6 7 7 8 7 6 5 3 3 2 2 3 4 5 5 5 5 4 4 4 4 4 3 2 3
14 16 16 16 17 17 19 19 22 21 20 16 13 11 10 9 8 7 6 5 4 4 4 4 5 5 6 7 6 5 4 3 3 3 2 1 2 3 3 3 3 3 3 3 3 3 3 2 1
16 18 18 17 16 18 15 16 21 21 16 16 13 11 10 9 8 7 6 5 5 4 4 4 4 4 4 4 4 4 3 3 3 3 2 1 0 0 2 2 3 3 2 3 3 3 2 2 1
16 19 19 17 17 19 12 16 20 13 11 10 11 11 9 8 8 8 7 6 5 4 4 3 3 3 3 4 4 4 3 2 2 1 1 1 1 2 2 2 2 2 2 2 2 2 1 1 1
16 16 17 14 8 15 19 17 18 11 11 10 10 10 9 8 8 7 6 6 5 4 3 3 3 3 2 3 3 3 3 3 2 1 1 2 2 2 2 2 2 1 1 1 1 1 0 -1 -2
16 17 16 16 16 16 18 18 21 14 14 11 9 9 9 8 8 8 7 6 5 4 3 3 3 2 2 2 2 2 2 2 2 2 2 2 2 1 1 1 1 2 1 1 1 1 -0 -1 -2
14 16 15 17 17 17 19 20 18 19 16 13 12 10 10 9 9 8 7 6 5 4 3 3 2 2 1 1 1 2 2 1 2 2 2 2 2 2 2 1 1 1 1 0 -0 -1 -2 -3 -4
17 17 17 18 15 15 14 19 13 14 15 14 14 11 10 10 9 9 7 6 5 4 3 3 2 2 1 1 1 1 1 2 1 1 2 2 2 1 1 0 0 -0 -1 -1 -2 -3 -4 -5 -5

GFSSGP_925_temp_033.txt.gz
Temp
24 25 26 28 30 31 29 28 29 29 29 29 29 29 29 29 28 26 25 24 22 23 22 20 19 20 20 20 20 20 20 19 19 19 19 19 19 19 18 18 18 17 17 16 17 17 18 18 18
24 25 27 31 30 30 29 29 29 29 29 29 29 29 30 27 28 27 26 23 22 23 22 20 19 20 19 19 19 19 19 19 19 20 20 19 19 18 18 18 18 17 17 16 17 17 18 18 18
23 25 30 31 31 30 29 29 29 28 28 29 29 29 29 27 27 26 23 23 22 22 22 21 20 19 19 19 19 19 19 19 19 19 19 19 19 18 18 18 18 18 17 16 16 16 17 17 18
26 29 30 30 30 29 30 30 29 29 28 28 29 28 27 24 25 23 22 22 23 22 21 20 19 19 19 19 19 19 19 19 18 18 18 18 18 18 18 18 17 17 17 17 16 15 16 17 17
27 30 30 29 28 29 29 29 29 29 29 29 29 28 26 23 23 23 22 22 23 22 21 19 19 19 19 19 19 18 18 18 18 18 18 18 18 18 18 18 17 17 17 17 17 17 17 17 17
30 30 30 29 29 28 29 29 29 29 29 29 29 29 25 22 22 21 21 21 21 20 19 19 19 19 19 19 19 19 19 18 18 18 18 18 18 18 18 17 17 17 17 17 16 17 17 17 17
29 29 30 30 29 28 29 28 29 29 29 28 28 28 26 22 20 21 20 20 19 18 19 19 19 18 18 18 19 19 19 19 18 18 18 18 17 17 17 17 17 17 17 16 16 16 16 17 17
28 29 28 29 29 28 28 28 28 28 28 27 27 28 27 21 19 20 20 20 19 17 17 17 17 17 17 18 19 18 18 18 18 18 18 18 18 18 17 17 17 17 17 17 16 16 15 16 16
26 29 29 29 29 29 27 28 27 27 28 27 25 25 21 19 20 21 21 20 19 18 17 16 16 17 16 17 17 17 18 18 18 18 18 18 17 17 17 17 17 17 17 17 17 16 16 15 16
28 28 29 29 29 29 28 28 27 27 27 27 24 21 20 20 21 21 21 21 19 18 17 16 15 16 16 16 16 17 18 18 18 18 18 18 18 18 17 17 16 17 16 16 16 16 16 15 15
27 28 27 27 27 28 27 27 27 27 27 28 27 23 20 20 20 20 19 17 16 16 16 15 15 14 15 17 16 17 18 18 18 18 18 18 17 17 17 17 17 17 16 16 15 15 14 15 14
26 26 26 25 24 25 26 27 26 27 26 23 23 22 20 20 18 17 16 16 15 15 15 14 13 14 15 15 16 16 18 18 17 17 17 17 17 17 17 17 16 15 16 15 15 15 15 14 14
26 25 25 25 23 24 24 25 26 26 22 21 19 19 19 18 17 16 15 15 14 14 13 13 12 12 14 15 16 16 16 16 16 15 16 16 16 16 16 15 15 15 14 14 14 14 14 14 14
25 24 25 25 25 24 23 25 24 26 22 20 20 20 18 17 16 16 14 14 13 12 12 10 10 12 14 16 15 15 15 16 16 15 15 15 15 15 15 15 14 14 14 14 14 13 13 13 13
23 24 26 26 25 24 23 23 22 26 21 21 21 19 17 16 15 14 13 12 12 12 10 9 10 11 13 13 14 15 15 15 16 15 14 14 14 14 14 14 13 13 13 13 13 12 12 12 12
24 24 25 25 23 22 23 26 26 22 21 21 21 20 17 15 14 13 11 11 11 11 10 10 10 11 12 12 13 13 13 13 13 13 13 13 13 13 13 12 12 12 12 12 12 11 11 11 11
24 25 26 26 24 23 22 26 23 22 22 22 21 20 18 16 14 12 11 11 10 10 9 9 9 11 12 12 12 12 11 11 10 11 11 11 11 12 12 11 11 10 11 11 10 10 10 10 10
26 25 26 25 24 22 24 24 24 22 22 23 23 20 18 17 14 11 11 10 10 10 9 9 9 10 11 11 11 11 12 11 11 9 8 9 9 9 10 10 9 9 9 9 9 10 10 9 9
25 24 25 26 23 22 24 25 26 24 22 23 24 21 18 16 13 11 10 10 10 10 8 8 8 9 9 9 9 9 8 7 6 6 7 8 8 8 8 7 8 7 7 7 8 9 9 8 8
23 23 24 25 22 21 23 24 25 25 23 23 24 22 19 15 13 11 11 10 10 10 8 8 8 9 9 10 9 8 8 7 6 5 6 6 7 7 7 6 6 6 6 6 6 7 8 8 7
22 22 24 24 21 20 22 22 23 24 25 24 21 22 19 16 14 12 11 10 9 9 9 9 8 9 9 8 8 7 6 6 6 5 5 5 6 7 7 7 7 6 6 6 6 5 6 7 6
22 24 22 22 21 21 21 22 25 25 21 19 18 18 17 16 14 13 11 10 9 8 7 8 8 8 8 8 8 9 8 7 5 4 4 4 6 6 6 6 6 6 5 5 4 4 4 5 5
22 20 21 21 20 20 21 19 23 25 24 21 18 16 16 15 13 12 11 9 8 7 7 7 7 7 7 8 9 8 6 5 5 4 4 3 4 5 6 6 6 6 5 4 4 4 4 3 4
19 19 18 18 19 18 20 21 23 24 21 22 18 16 15 13 13 11 9 8 7 6 6 6 6 6 6 7 7 6 6 5 5 4 4 3 3 3 4 4 4 4 4 4 4 3 3 2 2
18 19 19 18 17 18 18 20 23 24 19 21 17 15 14 13 12 11 9 8 7 6 6 6 6 6 6 6 6 6 6 5 5 4 4 3 2 2 2 3 3 3 3 3 3 2 2 2 1
17 20 20 18 20 21 14 18 22 21 17 15 18 15 14 12 11 11 9 9 7 6 5 6 6 5 5 5 5 5 5 5 4 4 3 2 1 1 1 2 2 2 2 2 1 1 1 0 -0
18 18 20 17 11 16 20 20 21 15 14 14 15 14 12 11 11 11 10 8 7 6 5 6 5 5 5 4 4 4 4 3 3 2 2 1 1 1 1 1 2 1 2 2 0 0 0 -1 -2
18 19 16 17 16 18 22 22 22 15 16 14 13 13 12 11 11 11 9 8 7 6 6 6 5 5 4 4 3 3 3 2 2 1 1 1 2 1 1 1 1 2 2 2 2 1 0 -0 -1
16 17 18 19 19 19 20 22 24 23 20 16 14 13 13 12 11 11 9 8 7 6 5 5 5 4 3 3 3 2 2 1 1 1 1 1 2 1 1 2 2 2 2 2 1 0 -0 -1 -2
19 19 19 18 16 17 19 21 17 22 22 17 16 14 13 12 12 11 10 9 7 6 5 5 5 4 3 3 2 2 1 1 1 1 1 1 1 1 2 2 2 1 1 0 -0 -1 -2 -3 -4

GFSSGP_925_temp_036.txt.gz
Temp
25 26 26 27 25 26 26 27 28 28 26 27 28 27 25 25 25 21 24 23 23 22 20 20 19 20 20 20 20 20 20 20 19 19 19 19 19 18 18 18 17 17 16 16 16 17 18 18 18
26 26 27 25 25 26 26 28 26 26 27 27 28 28 25 24 25 24 23 23 23 22 21 19 19 20 20 19 19 19 19 19 19 19 19 19 18 18 18 18 17 17 16 15 15 17 18 18 18
25 26 25 26 27 26 25 28 26 27 28 29 28 27 26 23 23 23 22 23 23 22 21 20 19 19 19 19 19 19 19 19 19 19 19 19 18 18 18 17 17 17 16 17 16 17 17 18 18
26 27 26 26 26 27 27 27 27 27 27 28 28 24 23 23 23 23 22 23 22 22 21 20 20 20 19 19 19 19 19 19 19 19 18 18 18 18 18 17 17 17 17 17 17 17 17 18 18
27 25 26 28 27 28 27 28 29 28 28 27 28 23 22 23 23 23 22 23 22 21 21 20 19 19 19 19 19 19 19 18 18 18 18 18 18 18 17 17 16 16 17 17 17 17 17 17 17
25 27 26 26 27 28 27 28 29 28 28 27 28 24 22 22 22 21 21 21 21 20 20 19 19 19 18 18 19 19 19 18 18 18 18 18 18 18 18 17 17 17 17 16 16 16 17 17 17
26 25 25 28 26 27 27 28 28 28 28 26 28 25 21 21 21 21 20 19 19 19 19 19 19 19 18 18 18 18 18 18 18 18 18 18 18 17 17 17 17 17 17 16 16 16 16 17 17
24 26 28 29 26 27 26 27 27 27 25 27 25 24 21 20 20 20 20 19 18 18 18 18 18 18 18 18 18 18 18 18 18 18 18 18 18 17 17 17 17 17 17 17 16 16 16 16 16
27 24 25 29 28 27 26 26 27 26 26 25 23 21 20 20 20 21 20 20 19 17 17 17 17 17 17 17 18 18 18 18 18 18 18 18 17 17 17 17 17 17 17 17 17 16 16 15 15
25 24 25 26 27 27 26 27 25 26 26 23 21 20 21 21 21 21 20 19 18 17 16 16 16 16 16 16 16 17 18 18 18 18 18 18 18 17 17 17 17 16 17 17 16 17 16 15 15
27 25 26 26 24 24 26 26 27 26 25 25 22 19 20 20 20 19 18 17 16 16 15 15 15 16 16 17 16 17 17 18 18 18 17 17 17 17 16 16 16 16 16 16 16 16 16 16 15
24 26 26 25 24 25 25 26 26 25 22 21 20 19 20 18 17 17 16 15 15 15 14 13 13 14 15 17 16 17 17 17 17 17 17 16 16 16 16 15 15 15 15 14 14 14 14 14 14
24 25 25 24 23 24 24 24 24 24 19 18 19 19 17 16 16 15 15 14 14 13 13 12 12 13 14 16 16 17 17 16 16 16 17 16 16 16 15 15 15 15 14 14 13 14 14 14 14
23 24 25 24 24 23 23 23 24 24 18 18 18 17 16 16 16 15 14 13 13 12 11 11 11 13 14 15 15 16 16 16 15 15 15 14 15 15 14 14 14 14 14 13 13 13 13 13 13
24 23 23 23 23 23 23 21 22 22 19 18 18 17 15 15 15 14 13 12 12 11 10 10 11 12 13 14 15 16 16 16 16 16 14 14 14 14 14 14 14 13 13 13 13 13 12 12 12
23 24 22 23 22 21 21 21 22 20 19 19 18 16 14 15 14 13 12 12 12 11 11 10 11 11 12 14 15 14 14 15 15 14 13 13 13 13 14 13 12 12 12 12 12 12 11 11 12
22 21 22 22 22 20 20 22 21 20 19 19 18 16 15 14 14 12 12 11 11 10 11 11 11 12 12 12 12 11 12 12 12 12 13 12 12 12 12 11 10 10 11 10 10 10 10 10 11
23 22 23 23 21 21 20 19 21 19 19 19 18 17 15 14 13 12 11 11 10 10 11 10 10 10 10 11 11 11 10 10 10 10 10 9 9 9 10 10 10 10 10 10 9 10 9 9 10
23 22 22 23 21 22 20 21 22 20 19 19 18 17 15 14 13 12 11 10 10 10 10 9 10 9 10 9 9 9 8 8 9 9 9 9 9 9 9 9 9 9 9 8 9 8 8 9 10
22 21 20 22 20 21 20 20 21 22 19 20 20 18 15 12 11 11 11 10 10 10 9 9 9 9 9 10 9 8 7 7 7 7 7 8 8 8 8 8 8 8 8 8 8 8 7 7 8
21 20 21 21 20 20 18 18 20 21 22 20 20 20 16 12 11 10 10 10 10 9 9 9 9 9 10 9 9 8 7 6 6 6 6 6 7 7 8 8 8 8 8 7 7 7 7 6 6
20 22 21 21 19 17 19 16 20 21 21 21 18 16 14 12 11 10 10 10 9 9 9 9 9 9 9 9 8 8 7 6 5 5 5 6 7 7 7 7 7 7 7 7 6 6 6 6 5
20 19 20 20 18 18 18 16 19 21 21 20 15 14 13 12 11 9 10 10 8 8 8 8 8 8 9 9 9 8 7 5 5 5 5 5 6 6 7 7 7 7 6 6 6 6 5 5 4
17 18 19 18 17 14 17 17 18 21 21 20 16 14 13 11 10 10 10 8 7 7 7 7 7 8 8 9 9 8 6 5 5 4 4 4 5 5 6 6 6 6 5 5 5 4 4 4 3
18 17 16 14 13 14 17 16 19 20 20 20 17 14 13 11 9 8 7 7 6 6 6 6 7 7 7 8 8 7 6 6 5 4 4 4 4 5 5 5 5 4 4 4 3 3 3 3 2
15 17 15 16 15 15 14 15 17 16 14 15 15 14 12 10 9 8 7 7 6 6 6 6 6 6 7 7 6 6 6 5 5 5 4 4 4 4 3 3 3 3 3 3 2 2 2 1 1
16 16 18 15 9 11 15 16 19 14 13 14 13 12 11 10 9 8 8 7 6 6 6 6 6 6 6 6 6 5 5 5 5 4 4 4 4 3 3 3 3 2 2 2 2 2 1 0 -0
17 17 14 14 12 13 16 18 18 14 14 12 12 12 11 10 9 8 8 7 6 6 6 6 6 6 5 5 5 5 5 5 4 4 4 3 3 2 2 2 2 2 2 2 2 2 1 1 0
14 15 16 16 14 14 14 17 21 18 16 13 13 12 11 10 10 9 8 7 6 6 6 6 6 5 5 4 4 4 4 4 4 4 3 3 2 2 2 1 2 2 2 2 2 2 1 1 0
17 16 16 14 15 15 13 19 19 19 16 14 13 12 11 10 9 9 8 7 6 6 6 5 5 5 4 4 4 4 3 3 3 3 3 2 2 1 1 1 2 2 2 2 1 1 0 -0 -1

GFSSGP_925_temp_042.txt.gz
Temp
26 26 26 25 21 18 21 24 23 24 24 23 21 21 20 20 21 19 21 22 21 21 20 20 20 20 19 19 19 18 19 19 19 19 18 18 17 17 17 17 17 16 15 15 16 18 18 19 19
26 26 25 18 19 19 20 22 23 24 22 19 21 21 19 20 20 20 20 20 21 21 20 20 20 20 20 19 19 19 20 20 19 18 18 18 18 17 17 17 17 16 15 15 16 17 18 18 18
26 25 21 19 17 20 20 22 22 23 20 24 22 19 19 20 20 21 21 20 20 20 20 20 19 19 19 20 19 19 19 19 19 18 18 18 17 17 17 17 17 17 16 15 15 15 17 17 17
25 23 18 20 23 23 22 21 22 23 24 22 19 19 19 20 21 21 21 21 20 20 20 19 19 19 19 19 19 19 19 19 19 18 18 17 17 17 17 17 17 17 17 17 17 17 17 17 16
24 18 19 21 24 24 23 21 21 24 24 23 22 19 18 20 20 21 20 20 21 20 20 19 19 19 19 19 19 19 19 19 18 18 18 17 17 17 17 17 17 17 17 16 17 18 17 17 16
20 18 19 21 23 24 24 22 23 23 23 21 18 18 18 19 20 19 20 20 20 20 20 19 19 19 19 19 19 18 18 18 18 18 18 18 17 17 17 17 17 17 17 17 17 17 17 17 17
19 18 21 21 22 24 25 24 22 22 22 23 19 18 18 18 19 19 19 19 19 19 19 18 19 18 18 18 18 18 18 18 18 18 18 17 17 17 17 17 17 17 17 17 16 16 16 17 17
17 18 23 21 21 24 24 24 21 23 23 21 20 17 17 18 19 19 18 18 18 18 18 18 18 18 18 18 18 18 18 18 18 18 17 17 17 17 17 17 16 17 17 17 16 16 16 16 16
19 18 20 23 21 24 23 24 23 22 21 18 17 17 19 19 18 19 18 18 18 17 18 18 18 18 18 18 18 18 18 17 17 17 17 17 17 17 17 16 16 16 16 17 17 17 16 16 16
18 17 23 23 22 22 22 23 22 23 21 18 17 17 18 18 18 17 17 16 17 17 17 17 17 17 17 17 18 18 19 18 17 17 17 17 17 17 16 16 16 15 15 16 17 16 16 16 15
20 20 23 22 22 22 22 23 22 20 21 19 18 16 16 17 17 16 16 17 16 16 16 17 17 17 16 17 17 17 17 17 17 17 17 17 17 16 16 15 15 15 14 14 14 14 15 14 14
23 23 23 22 22 23 22 23 23 22 22 20 17 15 15 13 14 15 15 15 15 15 15 15 16 16 16 16 16 17 17 17 17 17 17 17 16 16 15 15 15 15 14 14 14 14 14 13 13
22 22 23 21 21 22 22 22 22 21 17 15 15 15 13 13 14 15 15 15 14 14 14 15 15 15 15 15 16 17 16 17 16 16 16 17 16 15 15 15 14 14 14 13 13 13 13 13 12
21 21 22 21 21 21 21 21 22 20 14 14 14 13 12 12 13 13 13 14 13 14 14 13 13 14 15 15 16 16 16 16 15 15 16 16 15 15 15 15 14 14 13 13 13 13 13 12 12
21 22 20 20 20 21 20 20 19 18 14 14 13 12 11 12 13 13 14 13 13 12 12 12 12 13 14 15 15 15 15 15 16 15 15 15 15 14 14 14 14 13 13 13 13 12 12 12 12
21 19 19 21 19 20 20 19 21 14 14 14 12 11 11 11 12 13 13 13 12 12 11 11 10 11 13 15 15 14 14 15 14 13 14 14 14 14 13 13 12 12 13 12 12 12 12 12 11
17 18 18 19 18 19 19 19 20 13 14 14 12 11 10 10 11 12 13 12 12 11 11 11 11 12 13 14 14 13 13 13 13 12 12 12 12 12 12 11 11 11 11 11 12 12 12 11 10
17 18 18 19 20 19 18 16 17 15 15 15 12 11 10 10 10 12 12 11 11 11 10 11 11 12 12 13 12 12 12 12 12 12 12 11 11 11 11 11 11 11 11 11 11 12 11 10 9
19 18 20 20 20 19 17 17 18 16 15 14 13 12 11 11 11 12 11 11 10 10 10 10 11 11 12 11 10 10 10 10 11 11 11 10 10 11 11 11 11 10 11 11 11 11 10 9 9
18 18 16 17 19 17 18 16 16 16 16 16 16 14 13 10 8 9 10 10 9 10 10 10 11 11 11 12 11 10 9 9 9 9 9 10 10 10 11 11 10 11 11 11 11 12 10 8 9
17 16 17 18 18 18 17 15 17 18 16 16 15 17 15 12 10 8 8 9 9 9 9 10 10 10 10 10 10 9 8 8 7 8 8 9 10 10 10 11 11 10 11 11 10 10 11 8 7
17 17 18 19 18 16 17 16 16 17 17 16 17 15 15 12 10 9 8 7 9 9 10 10 10 9 9 10 10 11 9 6 6 7 8 8 9 9 10 10 10 10 10 9 9 9 9 9 7
18 18 18 18 16 16 16 14 15 17 16 18 20 16 14 11 10 8 8 8 8 9 9 9 9 9 9 10 10 10 9 8 7 7 7 7 8 8 9 9 9 9 9 8 8 8 8 8 7
16 16 14 13 13 13 16 15 15 17 19 18 17 15 13 10 10 9 9 8 8 9 9 9 9 9 9 9 9 10 9 7 6 5 6 6 6 7 7 8 8 8 8 7 7 7 6 6 6
16 16 14 13 12 15 14 13 19 17 17 17 18 16 10 9 9 7 6 6 7 8 8 8 9 8 9 9 9 9 9 9 8 6 6 5 5 6 6 7 7 7 7 6 6 6 5 4 4
15 15 13 14 13 13 13 13 16 15 17 14 13 13 9 7 8 7 7 7 6 6 8 8 8 8 8 8 8 8 8 8 7 7 6 6 6 6 6 6 6 6 6 5 5 4 4 4 4
14 15 16 14 4 9 14 14 15 14 14 13 12 11 8 7 6 6 6 6 6 6 7 8 8 8 8 8 8 7 7 7 7 6 6 6 6 6 5 5 6 5 5 4 4 4 4 3 3
15 15 14 11 12 11 14 13 17 16 15 15 13 10 8 7 6 5 5 5 5 6 6 7 8 8 8 8 7 7 7 7 7 6 6 5 5 5 5 5 5 4 4 3 3 3 3 3 2
14 14 15 14 11 12 12 16 14 18 16 16 14 12 9 8 7 5 5 4 5 5 6 7 7 7 7 7 7 7 6 6 6 6 5 5 5 5 5 5 4 4 3 3 3 3 2 2 2
14 15 14 13 13 11 12 19 16 16 16 14 14 12 9 9 7 6 5 4 4 4 5 5 6 6 6 6 6 6 6 6 6 5 5 5 5 4 4 4 4 3 3 2 2 2 2 2 2

GFSSGP_925_temp_048.txt.gz
Temp
25 25 26 24 21 17 20 21 21 21 21 19 19 19 20 18 20 19 19 19 20 20 19 19 19 20 19 19 19 19 18 18 18 17 17 17 17 18 18 18 18 17 16 16 16 15 16 16 16
25 25 25 16 18 18 18 19 21 21 19 16 18 19 18 19 18 19 19 20 19 19 19 19 20 19 19 19 18 18 19 18 18 17 17 17 18 18 19 19 19 17 16 16 15 15 15 15 16
24 25 20 16 15 18 19 20 21 21 17 21 19 17 18 19 18 19 20 20 19 19 19 19 19 19 19 19 19 19 18 18 18 17 17 16 17 17 17 16 16 16 16 16 15 15 15 15 16
24 21 16 18 22 21 21 21 20 19 20 19 18 18 18 18 18 19 19 19 19 19 19 19 19 19 19 19 19 19 18 18 17 17 16 16 17 16 17 17 17 16 16 16 15 15 16 16 16
22 16 18 19 21 21 20 20 18 20 21 20 19 18 18 18 19 20 19 19 19 18 18 19 19 19 19 19 19 19 19 18 17 17 17 16 17 17 17 16 16 16 16 15 14 14 15 15 15
19 16 18 20 21 22 21 19 20 21 20 18 17 16 17 18 18 19 19 19 19 19 18 18 18 18 18 18 18 18 18 18 17 17 17 17 17 16 16 16 16 16 16 16 15 14 15 15 15
19 17 19 19 21 22 22 17 20 20 19 20 16 17 17 17 18 18 18 19 19 19 19 18 18 18 18 18 18 18 18 18 17 17 17 17 17 17 16 16 16 15 15 15 15 16 16 16 15
15 16 19 19 19 22 21 20 21 20 21 17 17 18 18 17 17 18 18 18 18 18 18 18 18 18 18 18 18 18 18 18 18 17 17 17 17 16 16 16 16 16 15 15 15 15 15 15 15
16 17 18 19 19 22 20 22 19 18 18 18 17 16 17 18 16 17 17 17 17 17 17 17 18 17 17 17 18 17 17 17 17 17 17 17 17 16 16 16 16 16 16 15 15 15 15 15 14
16 16 19 19 18 22 20 21 19 21 19 19 17 16 15 16 16 16 16 17 17 17 17 17 18 18 18 18 18 18 18 18 17 17 17 17 16 16 16 16 16 16 16 15 14 14 14 14 14
18 19 19 21 21 20 20 21 19 19 20 18 18 16 12 13 14 15 16 17 17 17 17 17 17 18 18 18 18 18 18 18 17 18 17 16 16 16 16 15 15 15 15 15 14 14 13 13 13
22 20 20 21 20 20 20 19 20 18 21 18 17 14 12 12 13 14 15 16 16 16 17 17 17 17 17 17 17 18 18 18 18 18 17 17 16 16 15 15 14 14 14 14 13 13 13 12 12
21 20 21 20 20 20 20 21 20 19 18 16 15 13 12 12 13 15 16 16 16 16 16 16 16 16 16 17 17 17 18 18 18 18 18 17 16 15 15 14 14 14 14 14 13 12 12 12 11
20 20 20 20 20 20 21 20 20 20 15 16 13 13 11 12 13 14 15 16 16 16 16 16 16 16 16 16 16 16 17 17 17 17 17 17 16 16 15 14 14 14 14 13 12 12 12 11 11
19 21 19 19 19 20 19 19 18 18 15 16 13 12 11 11 13 14 16 16 16 16 15 15 15 15 15 15 16 16 16 16 16 17 18 17 17 16 15 14 14 14 13 13 12 11 11 11 10
18 16 19 19 17 19 20 17 18 16 15 15 13 11 11 11 13 15 15 16 15 15 15 14 14 14 14 14 15 15 16 16 16 16 16 16 17 16 15 14 14 13 13 12 12 11 10 10 9
14 18 17 18 16 18 18 18 19 14 13 14 12 11 11 10 11 14 15 15 15 15 14 14 13 13 12 12 12 14 15 15 15 15 15 15 15 15 14 14 13 13 13 12 11 11 11 9 7
17 17 16 18 18 17 17 15 15 15 13 13 12 11 10 10 12 14 15 15 14 14 14 13 12 12 10 10 12 13 14 14 14 14 15 15 15 14 13 13 13 12 12 11 10 10 9 8 7
16 17 18 17 18 18 16 15 16 16 13 13 12 11 12 12 14 14 15 14 13 13 12 12 12 10 10 10 11 11 12 12 12 13 13 13 13 13 13 13 12 11 11 11 10 9 9 7 7
17 18 16 16 16 17 15 15 16 16 14 14 16 14 14 13 10 11 13 13 12 12 12 11 11 9 9 10 11 11 12 11 12 12 12 12 12 12 12 11 10 11 11 10 10 10 7 6 7
15 15 16 17 16 15 15 14 15 16 15 14 13 16 15 15 14 10 9 11 11 11 11 11 11 10 9 10 10 11 11 9 9 10 10 11 11 11 11 11 11 11 11 10 10 10 9 7 6
15 14 16 16 16 14 15 14 14 17 17 15 17 14 15 15 13 12 9 9 9 11 12 11 11 10 9 9 10 11 11 8 9 10 11 11 10 10 10 10 10 11 11 10 10 9 10 9 7
16 15 14 16 14 14 14 14 16 15 16 17 19 16 14 14 12 12 9 10 10 9 10 10 10 9 9 9 10 10 10 10 11 9 10 10 9 9 9 9 10 10 11 10 10 9 10 9 9
13 15 13 11 12 13 14 14 16 15 17 17 18 17 15 13 11 9 11 10 9 9 8 9 9 9 9 8 9 10 10 9 9 7 8 8 8 8 8 9 10 10 10 10 10 10 10 9 9
16 16 15 13 11 14 12 13 19 18 18 15 17 17 15 13 11 8 6 6 7 7 7 8 8 8 8 8 8 9 9 10 10 9 8 8 7 7 8 8 9 10 10 10 10 9 9 8 8
14 15 13 14 12 13 11 13 15 15 14 14 13 13 12 11 9 7 6 7 6 6 6 6 7 7 8 8 8 8 9 9 8 9 9 9 9 9 8 8 9 9 9 9 9 8 8 7 7
14 14 16 16 3 10 15 14 15 14 14 13 13 12 12 10 9 7 5 6 6 6 6 6 6 7 7 7 8 8 8 8 8 8 8 8 9 9 8 8 8 8 8 8 8 8 7 6 6
15 14 14 11 13 10 14 13 16 18 17 15 14 14 13 11 9 6 4 5 6 6 6 6 7 7 7 7 7 7 7 7 7 8 8 8 8 8 7 7 7 7 7 7 7 6 6 5 4
14 14 13 13 12 12 11 17 12 17 17 16 16 15 14 12 9 7 4 5 6 6 6 6 6 6 6 7 7 7 6 6 7 7 7 7 7 7 7 6 6 6 6 6 6 6 5 4 4
13 14 13 12 12 10 10 18 15 14 15 14 14 14 14 11 9 6 4 4 4 5 5 5 5 6 6 7 7 6 6 6 7 6 6 6 7 6 6 6 5 5 5 5 5 5 4 4 3